Location: Dunedin
(45.8670°S, 170.5000°E)
Time: 23:25:05
(UTC+12:00)

ISS - Visible Passes

Search period start: 14 May 2021 00:00
Search period end: 24 May 2021 00:00
Orbit: 417 x 422 km, 51.6° (Epoch: 14 May)

Date Brightness Start Highest point End Pass type
(mag) Time Alt. Az. Time Alt. Az. Time Alt. Az.
20 May -0.9 07:15:48 10° N 07:18:33 23° NE 07:21:19 10° E visible
21 May -0.6 06:29:18 10° NNE 06:31:16 15° NE 06:33:14 10° E visible
22 May -2.9 07:16:49 10° NW 07:20:11 55° NE 07:23:35 10° ESE visible
23 May -2.1 06:29:37 10° NNW 06:32:47 35° NE 06:35:59 10° ESE visible
